Location: Skalnate Pleso
(49.1889°N, 20.2450°E)
Time: 10:29:15
(UTC+02:00)

Cosmos 1269 Rocket - Pass Details

Date: 26 February 2020
Orbit: 772 x 780 km, 74.1° (Epoch: 04 April)

Event Time Altitude Azimuth Distance (km) Brightness Sun altitude
Exits shadow 02:02:21 14° 18° (NNE) 2,064 6.7 -41.5°
Drops below altitude 10° 02:03:04 10° 19° (NNE) 2,332 7.0 -41.4°
Sets 02:05:29 0° 22° (NNE) 3,264 8.0 -41.1°
